Theta_e
288 283 281 284 286 287 285 285 286 285 285 284 284 283 283 283 285 287 287 288 286 288 288 288 288 289 290 292 293 294 293 292 291 291 291 291 291 291 290 290 290 291 291 293 292 292 293 293 294 294 295 295 296 297 296 297 297 298 302 305 307 311 315 317 318 319 319 318 319 319 318 317 319 318 319 319 320 320 319 319 319 319 318 317 317 317
284 282 281 280 286 286 286 284 284 285 284 285 284 283 284 283 284 288 288 287 286 287 287 288 287 289 290 292 292 292 291 290 290 290 290 290 290 290 289 289 289 290 291 291 291 292 292 292 293 294 295 296 294 295 296 296 297 297 299 301 305 309 313 316 318 319 319 320 320 319 318 319 318 318 317 317 319 319 319 319 319 318 318 317 316 315
283 281 283 284 286 283 282 283 284 286 286 283 284 283 282 285 285 289 287 287 286 287 286 288 286 288 290 290 291 290 289 290 290 291 290 290 290 290 289 288 288 289 289 290 290 291 291 292 293 294 295 295 295 295 295 296 296 296 297 298 300 304 308 312 315 317 318 318 320 319 319 319 319 319 319 320 319 319 319 319 319 318 317 316 316 316
281 279 282 284 283 285 283 282 282 282 283 284 284 283 283 284 283 282 288 288 287 285 283 286 284 286 289 289 288 289 289 290 290 291 291 291 290 289 288 287 287 288 288 288 289 289 290 291 291 293 294 295 295 295 295 295 295 296 296 297 298 299 302 307 311 313 317 319 319 321 320 321 320 319 317 318 319 318 318 317 318 317 317 316 316 316
283 287 286 283 282 286 286 282 284 283 284 281 283 283 282 283 284 283 284 285 287 287 286 284 283 283 286 285 287 290 290 290 290 290 289 289 290 290 289 288 288 288 288 288 289 289 289 289 290 292 294 295 294 294 294 295 295 295 296 297 299 299 300 302 306 311 315 317 318 318 319 319 318 319 318 316 316 316 315 315 316 316 317 316 316 316
283 283 284 285 284 283 285 283 284 285 283 281 280 284 284 283 283 283 284 283 282 282 282 283 277 278 283 285 286 288 288 287 289 287 285 285 288 287 285 286 288 289 289 288 288 288 289 289 289 291 293 294 294 294 294 295 295 295 296 298 299 300 300 300 302 306 311 314 315 315 315 313 314 313 313 312 313 314 313 314 316 317 317 316 316 316
283 283 285 286 284 283 282 283 284 285 282 282 284 283 284 283 282 282 282 282 277 276 282 284 277 274 283 283 285 287 286 285 285 284 283 283 286 286 284 286 287 288 288 289 289 288 288 288 288 289 292 294 294 294 295 295 295 295 296 297 298 299 300 301 302 303 306 311 314 314 314 315 314 313 314 316 316 315 316 317 317 316 316 316 315 315
285 285 284 283 283 282 282 281 284 284 282 281 284 283 283 282 282 282 282 281 280 283 285 283 282 277 276 284 285 285 283 282 281 281 282 282 283 285 284 285 287 288 288 288 288 288 288 288 288 288 291 294 294 294 294 294 294 295 295 296 297 299 299 300 301 302 303 306 310 312 314 314 315 314 315 316 316 317 316 317 316 316 315 316 316 315
284 284 283 282 281 280 282 284 284 284 285 283 285 283 283 283 283 282 281 280 280 279 276 279 282 275 275 280 284 284 281 279 279 279 280 281 283 284 284 286 287 288 288 287 287 287 288 288 288 288 290 293 294 294 294 294 294 295 295 295 296 297 299 300 300 300 302 303 307 310 311 313 315 316 315 315 315 316 316 316 316 315 315 315 315 314
285 284 284 284 282 282 283 283 282 284 281 283 284 283 283 282 282 282 279 279 279 275 273 278 281 274 275 280 279 280 279 276 278 278 279 280 282 284 285 286 287 287 287 288 287 288 288 288 288 289 290 293 294 294 294 294 294 294 294 294 295 296 298 299 299 299 301 302 304 307 309 310 312 315 316 315 315 315 316 314 314 314 314 314 314 313
283 285 288 284 283 284 281 283 282 283 284 284 282 281 282 281 281 280 279 277 273 270 273 279 279 276 269 277 276 278 276 277 277 278 280 281 282 283 284 284 285 285 286 287 287 287 288 289 288 288 289 291 293 294 293 294 294 294 293 294 294 295 297 299 298 298 299 301 303 305 307 309 310 312 314 314 314 315 314 313 314 314 313 313 313 313
284 283 286 286 286 285 283 284 283 281 282 281 278 278 279 276 276 276 267 271 266 268 274 274 276 276 267 272 278 279 279 278 278 277 278 279 281 282 282 283 284 285 286 286 286 286 287 287 287 288 288 289 291 292 292 292 293 293 293 293 293 295 297 298 298 297 297 299 301 304 306 308 310 311 312 314 313 313 313 314 313 314 313 313 313 313
279 281 283 285 288 285 283 280 282 281 281 280 279 279 273 268 270 264 266 263 267 270 273 276 276 271 272 278 280 278 278 278 279 279 279 280 280 281 282 282 284 285 285 285 285 285 286 286 286 286 287 288 289 290 291 292 292 293 293 293 293 294 296 297 297 296 296 297 298 301 304 306 308 310 311 313 314 314 313 313 313 313 312 312 312 312
276 279 282 284 285 285 282 278 277 276 278 278 278 275 266 266 261 263 265 265 267 271 276 274 275 271 276 277 280 278 278 279 279 280 281 281 281 281 282 283 283 284 285 285 285 285 286 286 287 286 286 287 288 289 290 291 291 292 292 292 292 293 296 297 297 296 295 296 296 298 301 304 307 308 310 312 314 315 314 314 313 313 313 312 312 311
270 271 280 281 280 283 281 279 279 277 276 279 280 276 268 265 264 261 262 262 263 267 271 275 268 265 269 275 277 277 278 280 281 281 282 282 281 282 282 283 284 284 284 284 284 284 285 287 287 287 287 287 287 288 289 290 290 291 291 292 292 292 295 296 296 295 295 295 296 297 299 302 305 308 310 311 312 315 314 314 313 313 314 313 313 312
276 274 280 282 283 280 280 281 282 278 276 278 278 277 271 266 273 265 265 264 263 267 266 267 271 273 274 279 278 279 279 280 281 281 280 280 281 281 281 282 282 283 283 283 283 284 285 286 287 287 287 287 287 288 289 289 290 290 290 291 291 292 294 296 295 295 295 295 295 297 297 299 302 304 307 309 311 313 315 315 314 314 314 314 313 313
275 274 281 282 281 278 279 280 279 279 265 275 273 268 272 276 276 267 267 269 266 265 266 271 271 274 276 278 277 278 278 278 279 279 279 279 280 281 281 281 281 282 282 282 283 284 285 286 287 287 287 287 287 287 288 288 289 289 290 290 291 292 294 295 295 295 295 295 295 295 297 298 299 301 304 306 308 311 315 315 315 314 314 314 313 313
272 274 280 280 280 282 278 278 279 279 278 274 267 272 277 279 276 265 259 261 262 260 262 270 267 269 269 265 275 276 275 277 277 277 278 279 280 279 280 280 281 281 281 282 283 284 285 286 287 287 287 287 287 286 287 288 289 290 290 290 290 291 292 294 295 295 294 294 294 295 296 297 298 298 299 304 306 309 312 313 314 314 314 313 313 313
278 270 277 278 280 281 278 278 277 279 278 274 273 278 270 261 261 269 260 255 258 259 262 266 269 269 271 269 273 273 274 275 276 277 277 278 278 279 279 280 280 281 281 282 282 283 284 285 286 287 287 287 286 286 287 288 288 289 289 290 290 291 292 294 295 295 294 295 294 295 296 296 297 297 297 299 302 306 309 311 312 313 314 314 313 312
279 269 274 277 277 278 278 275 268 272 277 277 275 274 276 270 267 259 265 260 263 261 261 261 266 264 271 270 273 273 275 275 276 276 277 278 278 278 278 279 279 280 281 281 282 283 284 284 285 285 285 285 285 285 286 286 287 287 288 289 289 290 292 293 294 294 293 294 294 294 295 296 296 296 296 296 298 302 306 311 312 312 312 313 313 313
273 278 266 275 276 276 271 276 272 273 267 271 271 271 271 269 272 270 268 261 261 256 256 260 260 265 270 275 275 275 276 276 276 276 277 278 278 278 279 279 279 280 281 281 282 283 283 284 284 285 285 285 285 285 285 285 286 286 287 288 289 289 290 291 293 293 293 294 294 294 294 295 295 295 296 295 296 297 303 309 310 312 311 312 312 313
266 273 268 274 273 273 273 276 276 275 275 273 271 270 270 266 262 261 260 268 258 258 255 258 259 268 272 277 276 276 277 277 278 277 277 277 278 278 279 279 280 280 281 281 282 282 283 283 284 284 285 285 285 285 285 285 286 286 286 287 288 289 290 291 292 293 293 293 293 293 294 294 295 295 295 294 295 295 299 305 311 311 311 310 311 312
274 271 270 268 272 273 276 276 278 276 276 275 273 272 275 272 270 259 260 260 265 268 267 266 263 265 276 276 277 277 277 278 277 277 277 277 277 278 279 280 280 281 281 281 282 282 283 283 283 284 284 284 284 284 284 285 285 286 286 287 288 288 289 290 291 293 293 293 293 293 294 294 294 294 294 293 294 294 295 300 307 310 310 310 310 310
282 263 262 272 273 275 272 274 275 275 275 273 274 274 273 271 272 268 266 270 267 267 264 264 263 268 276 275 275 277 278 278 278 277 276 277 278 278 279 279 280 280 281 282 282 282 283 283 283 283 283 284 284 284 285 285 285 285 286 286 287 287 288 289 291 292 293 293 292 293 293 293 293 293 293 292 293 293 294 295 303 307 309 309 309 309
267 272 270 263 264 268 270 272 272 273 273 272 271 273 274 275 273 272 270 269 261 266 267 263 258 264 273 277 277 277 277 276 276 277 277 277 278 279 279 280 280 281 281 281 281 282 282 282 282 282 283 283 284 284 285 285 285 285 285 286 287 287 288 289 290 291 292 292 292 292 292 292 293 292 292 292 292 292 293 294 297 305 307 308 308 308
272 271 267 262 261 261 262 262 262 263 268 272 273 272 274 273 271 267 260 262 263 267 268 262 262 269 274 276 275 275 275 275 276 277 278 278 278 278 279 280 280 281 281 281 281 281 281 281 282 282 282 283 284 284 284 285 285 285 285 286 287 287 288 288 289 290 291 291 291 291 291 292 292 292 292 291 291 292 293 293 294 302 305 307 305 306
267 273 272 270 265 264 268 270 273 275 271 269 270 272 272 273 273 270 265 262 263 266 264 266 267 268 270 272 273 274 275 274 275 276 276 277 279 280 280 280 280 280 280 280 280 280 281 281 281 282 282 283 283 283 284 284 284 284 285 285 286 287 287 287 288 289 290 290 290 290 290 290 291 292 291 291 291 291 292 292 293 297 303 303 303 303
269 268 273 272 271 272 273 272 273 275 270 271 271 271 273 272 270 265 263 263 269 265 262 270 271 267 269 271 273 273 274 275 275 276 277 278 279 279 280 280 281 279 279 279 279 279 279 278 277 277 278 278 279 279 279 280 282 283 284 285 286 287 286 287 288 288 289 289 288 288 289 289 290 291 291 291 291 291 292 292 292 295 300 301 303 303
271 264 269 273 272 274 274 273 274 272 273 272 272 273 272 273 271 267 266 270 270 263 263 268 270 268 270 272 274 274 275 275 276 277 278 279 279 279 278 278 277 277 278 278 278 276 274 273 273 273 273 274 275 275 276 278 279 280 281 283 285 286 286 286 286 287 287 287 287 286 287 288 290 291 291 290 290 290 291 291 292 293 297 298 302 302
270 266 270 272 269 272 272 273 274 272 272 272 272 273 273 272 271 271 270 272 271 268 270 270 270 270 272 273 274 275 276 276 277 278 279 278 277 277 277 276 276 276 276 275 273 272 272 271 271 271 271 272 272 271 272 274 276 277 278 280 281 283 285 285 285 285 285 285 285 285 286 287 289 290 290 289 289 289 290 290 291 292 294 295 299 301
274 267 275 271 266 267 271 274 273 272 271 270 272 273 273 273 272 272 271 271 271 270 271 270 269 269 273 275 275 276 277 278 278 277 277 276 276 275 275 275 275 274 273 272 271 270 270 271 270 270 271 271 271 270 271 271 272 273 273 275 277 280 282 283 283 283 283 284 285 285 285 286 288 289 288 288 288 288 289 289 290 291 292 294 295 296
277 268 272 268 263 265 270 270 272 272 271 270 270 271 271 271 268 270 267 270 268 267 269 269 267 268 273 276 276 276 277 276 275 276 275 275 275 274 274 274 272 271 270 270 269 269 269 269 269 269 269 270 270 270 270 270 271 271 272 274 276 278 280 281 282 283 283 283 283 284 284 286 287 287 287 287 287 288 288 289 289 290 291 293 294 294
275 269 263 261 263 265 270 270 269 269 267 264 266 270 272 272 273 272 272 272 272 272 268 265 267 273 274 275 274 275 275 275 275 274 273 273 274 275 273 272 271 270 269 269 268 268 268 268 269 269 269 269 269 269 270 270 270 271 272 273 274 277 277 278 279 279 280 281 281 282 284 286 285 285 286 286 287 288 288 288 289 289 290 292 294 294
275 273 265 271 264 264 268 267 269 262 257 259 272 275 274 271 271 269 269 271 272 272 271 273 273 274 274 274 274 274 274 273 273 274 275 274 273 273 272 271 270 269 268 268 268 268 268 268 268 268 268 269 269 269 270 270 271 271 273 273 274 275 275 277 278 279 280 281 282 284 284 284 285 285 286 287 287 288 288 288 288 289 291 293 293 293
274 272 266 271 264 263 264 265 262 257 258 270 275 275 275 274 273 272 272 272 273 273 273 272 273 273 275 275 275 274 274 274 274 273 274 276 275 272 270 269 269 268 267 267 267 267 267 267 268 267 267 268 268 269 270 270 271 271 272 273 273 274 274 275 276 277 278 279 280 281 283 284 285 285 286 287 287 287 288 288 289 289 291 293 292 293
272 270 268 268 266 263 264 259 258 257 267 273 274 275 276 274 273 271 270 273 272 273 273 272 273 275 275 275 274 274 273 272 273 275 276 276 274 272 270 269 268 268 267 267 266 266 266 266 266 266 267 269 269 269 270 270 271 271 271 273 273 274 274 275 276 277 278 279 280 281 282 284 285 286 286 287 287 287 288 288 288 289 291 292 293 293
276 274 270 262 270 261 261 258 263 268 269 271 270 271 272 271 270 268 265 270 274 273 273 273 274 275 274 273 273 272 272 271 271 273 276 274 272 271 270 269 268 268 267 267 267 266 267 267 267 267 268 269 269 269 270 271 271 271 271 272 272 273 274 274 275 276 277 279 281 282 283 285 285 286 286 286 287 287 287 288 288 289 291 291 292 292
277 271 272 266 264 266 260 259 260 257 257 265 271 274 275 274 274 274 270 268 275 273 276 274 273 273 272 272 271 270 271 268 267 269 272 273 271 270 270 269 268 268 267 267 266 266 267 267 268 268 269 269 269 270 271 272 272 271 271 271 272 272 273 274 274 275 276 277 279 281 283 285 285 285 286 286 287 287 288 288 289 289 291 291 291 291
277 277 275 269 265 261 260 260 257 255 259 271 272 274 275 274 275 273 267 265 272 275 275 274 272 272 271 270 269 269 268 264 265 268 271 270 269 269 268 267 267 267 266 266 266 265 266 267 267 268 268 268 268 270 271 272 272 271 270 271 272 272 272 273 274 274 275 276 278 281 282 284 285 286 286 287 287 287 287 288 288 290 290 291 291 291
273 271 269 266 263 262 259 259 259 260 263 270 272 274 275 274 275 269 261 261 274 275 274 273 272 271 270 269 269 268 267 262 264 267 270 269 269 269 267 266 266 266 266 266 265 266 267 267 267 266 266 267 268 269 269 271 271 271 271 271 272 272 272 273 274 275 276 276 277 279 281 283 285 286 286 286 287 287 288 288 289 289 290 290 292 292
266 266 266 265 267 267 268 261 262 264 272 275 275 275 274 275 273 261 259 268 274 273 273 272 271 271 270 267 268 265 268 269 268 268 269 269 267 267 267 266 266 266 265 265 265 268 266 266 266 265 266 267 268 268 269 270 270 271 271 272 272 272 273 275 275 276 276 277 278 280 281 282 284 285 286 286 286 287 288 288 289 289 289 289 291 291
268 266 266 268 264 264 263 261 263 265 272 274 275 275 274 269 260 262 272 274 272 271 272 272 270 269 268 267 267 267 267 268 268 268 267 267 266 266 266 265 265 265 265 266 266 266 265 265 264 265 265 267 267 268 268 268 268 269 271 272 272 273 275 275 276 276 276 277 278 280 282 283 284 285 286 286 287 287 287 288 288 289 289 290 290 289
269 265 263 263 267 267 263 258 260 258 266 276 273 273 275 266 269 274 273 273 272 270 271 270 269 268 268 266 267 266 266 266 266 266 266 266 265 264 264 264 264 263 263 263 263 264 264 263 263 263 264 265 266 266 266 267 267 268 269 269 272 275 276 276 276 277 277 278 278 279 280 280 282 283 285 286 286 287 287 288 288 288 289 289 289 289
275 264 266 269 271 258 260 259 261 270 271 275 276 269 271 275 275 272 271 271 272 272 269 267 268 268 267 266 265 265 265 265 265 265 265 264 264 264 264 264 264 263 263 264 264 263 263 262 262 263 263 264 265 265 265 266 266 267 267 268 271 273 275 278 279 278 278 278 279 279 280 281 282 283 284 285 286 287 287 287 288 288 289 289 289 289
276 272 273 266 273 267 262 268 274 274 274 276 277 276 275 273 272 271 271 271 270 269 267 266 267 267 266 265 265 265 264 264 264 264 263 263 264 263 263 263 263 263 263 263 263 263 262 262 261 262 262 263 263 264 265 265 265 265 265 267 269 270 272 275 276 278 280 280 280 280 280 281 282 283 285 286 287 287 287 287 287 288 288 288 289 289
276 276 275 274 273 276 276 276 277 277 277 276 276 276 274 271 271 269 269 269 269 268 267 266 266 266 265 265 263 263 264 264 263 263 263 263 263 263 264 263 263 263 263 263 262 262 262 261 261 261 261 262 263 263 264 264 265 264 265 267 268 269 271 273 273 275 277 281 282 282 283 283 283 285 286 286 287 287 288 288 288 288 288 288 289 289
276 276 275 273 275 271 266 276 274 275 275 274 276 272 270 270 271 271 270 269 268 267 266 266 266 265 265 264 263 263 263 263 262 262 263 263 262 262 263 262 262 262 262 261 262 262 261 260 260 260 260 260 262 263 263 263 264 264 265 266 267 268 270 271 271 273 275 278 282 285 285 284 285 285 286 286 287 287 288 288 288 288 288 288 289 289
272 278 274 275 274 272 271 274 275 276 276 276 276 274 271 270 271 270 269 268 268 267 266 265 264 263 264 262 263 262 262 262 261 261 261 261 262 262 262 262 262 261 262 262 262 262 260 260 259 259 259 260 261 262 262 263 263 264 265 266 267 268 269 269 271 272 273 276 278 281 285 286 285 285 286 286 287 287 287 288 288 288 288 288 289 289
276 277 270 273 272 274 275 276 277 275 275 274 272 271 271 270 270 269 268 267 266 265 265 265 264 264 263 263 263 262 260 261 261 261 260 260 261 261 262 262 261 261 261 261 261 261 260 259 259 259 259 260 261 261 261 262 263 263 264 265 266 266 266 267 269 271 272 274 277 280 283 285 286 286 286 287 287 287 288 288 288 288 289 289 290 290
276 272 276 274 270 270 271 273 275 268 269 274 273 270 270 270 269 267 267 265 264 263 264 262 263 263 263 263 262 261 260 260 261 261 260 260 260 261 261 261 261 261 260 261 260 260 260 260 259 259 259 260 260 260 261 261 262 263 264 264 265 265 265 266 268 269 272 274 277 279 282 284 286 286 286 287 287 287 287 288 289 290 289 289 289 290
275 275 275 272 271 270 275 275 275 275 274 275 274 269 270 268 267 266 265 264 264 264 263 262 261 261 261 261 262 261 260 260 260 260 259 259 260 261 261 261 260 260 260 260 259 259 259 259 259 259 259 259 260 260 260 261 261 262 263 263 264 264 265 266 268 270 272 275 277 279 281 283 285 286 286 287 287 287 287 287 288 290 290 290 289 290
Wind_Speed
1 8 3 1 4 6 3 2 3 4 4 3 2 2 8 9 13 1 4 2 7 11 10 14 21 24 25 16 17 15 13 11 8 9 9 8 8 9 10 11 11 13 12 8 10 12 14 15 14 12 11 13 15 15 16 17 19 17 13 12 13 9 9 9 10 10 10 12 13 13 10 9 13 12 12 13 13 12 11 13 12 13 10 10 9 11
6 8 1 5 2 3 4 2 2 0 0 1 6 4 9 6 12 9 8 3 5 8 13 14 20 30 24 16 16 13 11 8 7 10 8 9 9 8 11 12 12 9 7 12 16 18 18 18 19 16 13 14 19 18 18 18 17 16 16 13 12 10 9 10 11 12 11 10 11 12 14 12 8 11 13 12 11 13 13 14 13 12 12 12 11 11
8 4 2 3 1 1 2 2 1 0 4 4 3 5 7 8 7 11 1 3 5 9 15 17 19 27 21 13 16 8 4 4 10 10 7 10 10 10 12 11 11 12 13 14 14 14 15 16 17 15 15 15 13 13 13 14 16 16 15 14 12 9 11 11 12 11 12 11 11 12 12 12 11 8 10 14 15 12 13 13 14 13 13 12 11 10
6 5 4 1 2 1 1 3 3 2 1 2 7 6 8 5 8 13 17 13 6 5 5 11 12 22 14 5 13 4 5 6 10 11 10 8 12 12 12 10 11 14 16 17 16 16 14 14 14 14 13 14 15 17 17 18 18 15 15 16 16 14 11 10 12 13 14 15 16 15 13 14 14 13 10 8 9 14 16 14 14 12 12 14 13 14
7 10 1 2 3 3 3 3 4 3 7 2 2 3 4 8 8 3 12 17 19 2 7 5 12 17 8 10 13 8 9 15 9 12 16 14 8 6 5 8 12 12 13 14 16 17 17 18 17 16 12 12 12 14 16 16 15 13 17 18 17 14 12 10 13 15 14 13 13 15 15 11 13 13 11 12 10 10 11 12 11 13 14 16 16 15
8 4 1 2 3 5 2 6 1 1 6 5 2 1 4 6 9 11 13 15 14 13 5 8 12 15 12 6 15 8 9 11 8 14 15 14 10 9 12 12 11 11 11 12 13 14 13 12 13 15 14 13 13 14 14 14 15 15 16 18 18 15 14 13 14 15 14 12 12 11 12 16 12 12 14 16 15 11 11 12 11 14 17 16 15 14
4 1 3 1 3 4 4 0 4 1 3 1 2 1 3 4 4 8 13 10 12 13 3 10 6 18 14 9 8 5 10 10 9 12 13 14 9 8 7 8 10 12 14 14 14 14 14 14 13 15 12 10 12 12 12 13 15 17 16 16 17 16 14 14 14 15 13 13 12 14 15 14 16 14 10 11 12 13 15 17 18 15 13 15 14 14
0 2 4 4 4 4 3 2 2 1 2 2 3 3 3 4 9 10 8 7 10 6 9 5 8 9 15 2 4 2 11 8 12 13 14 13 8 6 5 6 9 10 12 13 14 15 13 11 11 14 14 12 14 15 14 13 13 16 17 17 18 15 15 14 15 16 14 14 13 14 15 16 17 16 14 13 15 16 16 15 17 15 14 15 15 13
1 2 3 5 4 3 2 1 3 1 0 1 5 3 5 5 7 7 6 10 8 6 9 1 4 3 5 4 9 12 7 11 10 13 13 14 12 9 7 5 11 11 13 12 13 14 14 13 13 14 15 14 15 14 14 14 13 14 15 17 17 18 17 15 18 17 17 14 14 13 13 14 14 16 14 11 9 11 13 16 14 16 15 14 15 15
1 1 2 3 2 0 2 1 0 2 5 4 5 1 2 3 4 5 5 9 8 3 8 2 2 4 12 10 5 5 8 12 11 12 11 11 10 7 11 11 15 14 15 17 19 20 19 16 13 12 12 12 13 12 13 14 14 14 14 16 18 19 17 17 18 17 18 18 15 13 13 17 16 13 13 11 13 12 11 14 14 14 14 13 13 14
3 4 5 5 1 2 3 1 2 5 2 4 1 6 7 5 4 2 4 2 4 6 2 3 3 5 11 4 3 4 6 3 6 9 13 18 16 13 15 18 19 19 18 18 19 18 19 15 13 11 12 11 12 12 14 15 14 13 13 15 18 17 16 17 17 19 19 18 16 14 14 16 19 18 17 15 14 16 16 16 16 14 13 14 15 14
5 2 2 1 2 0 3 3 3 3 3 7 5 2 7 7 5 3 2 3 0 6 8 2 4 7 12 3 7 8 5 7 9 12 14 14 13 13 15 17 18 17 16 18 18 20 18 16 14 12 12 11 12 13 14 14 15 14 12 14 17 17 17 17 17 19 19 18 18 16 16 17 17 17 15 19 18 17 19 19 18 16 14 14 15 14
5 4 1 2 2 4 1 4 2 6 11 11 7 7 7 7 7 5 1 5 6 11 4 6 10 13 9 10 3 4 13 11 7 10 15 14 15 19 24 28 24 20 20 19 20 20 18 15 14 13 14 13 12 11 13 14 13 14 14 14 15 17 17 15 16 17 19 19 19 18 18 17 15 16 17 19 18 15 16 17 17 16 16 16 15 15
5 2 3 2 3 3 2 6 6 7 5 5 3 2 4 6 4 8 8 4 6 7 7 5 6 10 11 1 4 5 3 6 11 16 14 18 24 26 23 21 19 19 19 19 19 19 18 17 14 13 12 12 11 11 12 13 13 12 13 15 14 14 14 14 14 15 17 18 18 19 19 17 15 16 16 16 15 14 14 14 18 19 18 16 18 17
1 3 1 1 0 3 5 5 4 5 3 2 2 3 3 4 1 7 2 5 7 14 23 12 3 4 4 1 6 2 1 10 17 18 16 15 17 19 18 17 17 17 18 17 19 19 19 19 18 15 14 13 11 12 11 11 13 13 13 13 16 16 14 13 13 13 16 16 18 18 18 18 16 15 15 16 14 13 13 14 16 16 15 17 17 18
2 4 1 2 0 3 2 1 2 2 4 3 2 4 4 3 4 6 3 2 6 15 16 5 6 5 5 0 2 8 12 17 17 12 7 15 17 17 15 14 16 17 17 17 19 20 20 19 17 16 15 14 12 12 11 12 12 14 15 14 14 14 14 12 12 12 12 15 14 18 19 19 18 16 15 15 14 14 16 16 17 18 18 16 16 16
2 3 2 3 3 4 2 1 1 4 1 1 3 1 4 2 3 2 7 3 1 5 12 4 11 11 2 12 6 15 17 18 14 9 13 17 18 15 15 16 15 15 17 17 18 18 20 19 18 16 16 15 14 13 13 13 13 14 16 16 16 15 14 13 12 11 12 14 16 18 18 18 19 19 18 17 18 18 16 17 17 16 18 17 15 14
2 7 5 6 0 0 2 4 6 4 4 3 1 4 4 3 6 6 3 4 4 6 9 6 17 19 12 11 7 17 17 17 15 13 16 18 17 17 17 17 17 18 19 19 18 19 18 18 19 18 16 17 17 16 15 15 14 12 13 15 17 16 16 14 12 12 11 13 15 17 18 18 17 17 19 18 18 18 16 15 16 16 16 17 17 17
3 5 2 2 4 1 1 3 4 5 6 4 5 2 3 3 4 5 7 3 4 8 7 9 17 16 6 7 10 17 18 16 14 15 19 20 18 18 19 18 18 19 19 18 19 20 20 19 20 19 19 18 18 18 15 15 14 13 13 15 15 16 15 14 12 10 9 9 10 11 15 16 16 17 18 18 18 18 18 17 16 19 18 19 18 17
1 3 4 2 2 3 0 4 3 2 2 1 3 4 1 5 3 1 2 3 2 9 6 14 10 15 5 4 13 19 15 14 13 17 19 19 18 19 16 19 18 18 17 17 19 21 22 23 22 21 20 19 19 18 17 15 13 14 15 16 16 16 13 13 12 11 10 10 10 13 14 14 14 15 16 18 19 18 19 18 16 16 18 20 20 20
1 2 5 2 5 4 4 1 2 6 1 2 5 1 3 0 3 5 3 7 5 4 3 6 15 12 5 11 14 16 15 11 14 19 17 18 19 18 18 19 19 16 17 18 20 20 22 24 24 23 21 19 17 16 16 14 14 15 15 16 17 16 16 13 12 11 10 9 10 11 14 15 14 15 15 17 20 20 19 17 14 13 13 14 17 18
1 1 6 1 6 2 4 3 3 5 8 7 7 5 6 1 3 4 10 2 2 3 2 4 15 20 3 3 11 12 12 12 15 16 19 19 20 20 19 20 19 18 18 19 20 21 22 22 24 23 21 20 17 17 18 18 16 17 18 17 17 15 13 14 12 11 11 9 8 10 13 14 13 13 13 16 18 20 20 19 16 17 15 17 17 20
3 1 1 7 5 6 3 5 3 3 5 7 7 2 4 2 5 1 5 5 4 5 3 9 10 19 10 6 7 8 13 16 14 16 18 18 20 18 18 19 19 20 20 19 21 22 21 23 24 23 23 22 22 20 19 19 18 17 18 17 16 15 15 13 13 11 10 10 10 10 11 12 13 13 14 15 15 18 21 22 17 14 19 17 16 15
3 2 1 6 2 1 7 4 7 5 4 0 2 5 3 2 3 5 5 7 8 8 2 4 12 18 9 3 5 11 15 15 15 15 18 18 18 20 19 19 23 23 22 22 19 18 19 20 20 22 21 21 19 19 20 20 19 17 17 16 16 17 17 13 11 11 10 10 10 10 11 12 12 13 13 14 13 17 20 21 20 13 15 20 18 19
2 3 5 4 5 1 6 4 3 2 1 1 3 4 4 3 3 5 4 3 1 8 11 7 15 14 7 8 14 13 14 17 19 18 14 20 21 20 19 19 20 21 22 23 26 24 26 23 25 21 21 21 21 21 20 20 19 17 17 16 16 17 16 13 10 10 10 10 11 10 10 12 12 12 13 13 13 16 18 19 21 14 13 12 16 20
2 4 2 2 5 9 10 6 4 4 4 4 3 3 3 4 4 3 2 2 6 6 11 6 10 16 18 15 17 17 18 16 15 18 17 18 21 23 20 21 21 21 26 30 30 28 27 26 23 22 21 20 22 22 20 19 18 17 17 17 15 16 15 13 11 10 10 9 9 10 11 12 12 12 13 12 13 14 15 17 20 17 13 15 14 14
1 1 3 6 6 8 9 6 1 4 4 7 13 15 9 2 3 2 1 1 6 11 13 13 12 21 20 18 20 21 17 19 20 18 19 21 22 20 20 23 26 27 26 27 27 25 27 27 26 23 21 21 22 21 20 19 19 18 17 17 16 15 15 13 11 11 9 9 9 9 10 12 12 12 11 11 12 12 14 16 18 19 14 12 15 15
2 0 6 6 9 9 7 10 6 3 3 7 10 18 13 7 4 3 4 8 10 8 17 9 14 17 19 18 18 19 20 17 17 17 19 18 17 22 23 30 32 32 28 29 22 24 20 25 28 28 27 25 23 25 25 23 22 22 19 18 16 14 12 10 11 11 10 9 9 9 11 13 13 12 11 11 11 12 13 14 16 18 14 12 16 17
4 2 6 3 11 8 6 10 11 3 4 7 12 17 15 13 10 7 7 11 8 6 16 19 19 18 19 16 19 19 18 19 20 20 17 19 22 26 28 30 29 28 31 26 24 21 26 27 26 29 29 27 26 26 25 23 22 21 22 21 17 15 14 14 13 11 9 10 12 12 12 14 13 11 11 11 12 12 13 14 15 17 14 11 15 17
4 3 6 4 6 2 4 8 5 4 3 8 15 16 14 13 14 12 12 12 12 14 19 20 20 20 17 16 15 17 19 18 19 16 13 22 27 27 26 30 26 29 26 28 28 29 27 27 25 24 27 26 24 25 26 25 22 22 21 20 20 20 18 16 16 14 15 16 17 16 16 16 15 12 10 11 12 13 13 13 14 15 14 11 11 17
6 5 6 1 1 3 7 8 4 5 5 9 18 16 13 13 12 13 10 11 10 13 16 18 19 18 10 11 15 17 18 19 20 18 18 24 29 29 28 27 27 28 30 29 31 31 30 30 29 26 26 27 27 28 25 23 20 19 22 22 23 21 21 18 22 24 26 26 23 20 19 17 15 10 11 11 13 12 13 13 12 14 13 12 10 11
2 4 3 2 2 5 2 5 4 4 6 12 16 15 15 13 9 7 4 4 3 13 17 17 15 13 13 13 15 16 22 23 21 22 22 23 25 29 26 28 32 32 32 33 35 34 33 33 30 29 29 28 28 27 25 25 25 24 23 22 20 18 18 18 20 19 20 20 21 21 20 18 12 10 11 12 13 13 12 12 12 13 13 11 11 10
2 3 1 1 2 5 3 5 1 1 3 8 12 12 14 11 10 11 10 6 8 10 10 11 13 13 17 15 18 21 22 22 24 22 23 24 22 20 26 32 32 33 36 33 29 29 28 28 30 28 30 28 26 26 27 26 25 24 23 23 22 18 19 18 19 20 23 24 23 23 20 11 9 11 13 13 13 12 11 12 12 13 13 12 11 11
3 4 2 2 3 4 2 2 2 2 2 5 3 7 8 8 10 11 12 7 7 5 9 10 14 15 15 15 19 21 21 24 25 22 19 20 17 18 24 27 30 28 26 26 26 28 30 28 26 26 28 29 30 28 27 24 25 24 22 21 20 20 20 20 17 18 17 16 15 12 9 11 11 13 13 12 11 11 12 11 12 13 12 11 10 11
4 3 2 2 2 4 5 6 4 5 8 4 4 5 8 8 7 12 15 8 7 11 13 14 13 12 16 15 17 17 20 25 28 25 17 15 16 18 22 28 32 33 34 34 32 30 29 30 32 32 31 28 27 29 27 25 22 23 23 22 21 17 18 17 21 18 20 18 19 17 14 12 13 13 12 11 11 12 12 11 11 13 11 10 11 12
4 6 2 0 3 4 3 1 2 7 3 9 11 11 7 2 6 4 11 6 7 7 9 10 14 16 15 16 16 17 20 25 28 25 14 12 13 17 22 23 27 30 35 33 31 33 33 31 29 29 32 31 28 25 27 27 24 23 24 22 21 19 16 17 17 19 16 18 15 17 16 14 13 12 11 11 11 12 12 11 11 12 10 10 10 11
7 3 4 1 3 4 3 3 8 8 13 7 2 3 1 3 2 3 9 13 7 4 3 11 16 17 17 16 19 19 20 19 17 22 28 26 24 19 18 19 26 27 28 31 31 30 28 27 29 32 30 28 29 28 26 28 26 23 23 22 21 21 19 16 17 17 18 16 16 14 13 12 12 12 11 11 11 12 11 11 12 11 9 10 10 10
7 9 4 6 3 7 3 4 6 6 4 8 4 1 0 3 2 2 3 13 1 2 9 11 16 16 18 18 20 20 16 15 18 18 24 30 29 30 33 28 18 20 25 28 30 30 27 28 28 28 27 29 30 29 27 26 27 25 23 23 21 21 20 17 17 17 17 17 15 17 14 11 11 11 11 11 11 11 11 10 9 11 9 10 10 11
5 5 3 4 3 3 2 2 3 2 9 8 8 6 2 1 1 1 1 10 1 7 9 10 15 16 16 19 21 14 12 13 14 17 21 30 32 30 32 32 33 32 29 27 28 31 34 30 28 27 27 27 28 28 28 26 22 22 24 22 22 20 20 19 17 15 17 18 18 17 17 16 13 11 11 11 11 10 11 10 10 10 8 9 10 11
6 3 2 4 4 4 3 3 7 4 6 7 5 10 7 3 1 4 8 5 6 14 10 11 15 16 15 16 14 11 9 16 18 18 23 30 34 35 31 32 30 31 33 31 27 27 27 27 29 30 29 28 28 28 29 27 24 24 24 21 20 20 20 20 19 18 16 18 18 17 15 12 12 12 11 11 10 10 10 9 8 9 9 9 9 9
4 2 4 12 9 8 9 5 3 5 9 7 9 5 3 2 2 2 6 9 6 10 11 8 11 13 11 12 8 11 10 8 15 21 24 26 30 32 30 29 30 28 26 29 33 33 27 25 24 24 27 26 27 26 25 24 24 25 21 20 19 20 19 19 17 16 17 16 17 16 15 14 13 14 12 10 10 10 10 9 9 9 9 9 8 9
1 3 4 4 6 9 6 5 6 6 12 9 11 4 1 5 4 9 6 3 5 8 10 8 9 10 11 10 9 10 14 16 18 20 21 23 24 28 32 33 31 29 29 26 26 25 26 27 28 28 28 26 26 25 23 23 25 25 24 21 20 20 18 16 15 15 15 15 16 15 13 13 12 11 10 10 10 10 10 9 8 8 8 8 8 10
9 6 6 5 2 2 2 2 2 4 5 6 6 2 2 1 5 3 5 3 1 3 7 11 7 7 6 13 12 15 17 17 18 19 20 22 24 27 28 28 30 32 31 30 30 29 27 26 27 28 28 26 25 23 23 23 26 24 23 23 25 22 17 15 13 12 14 14 14 14 15 15 14 13 10 11 11 11 11 9 8 8 8 9 10 11
4 4 3 3 6 6 5 6 7 8 5 4 3 4 2 3 2 3 1 7 4 3 5 6 9 6 8 10 14 16 18 18 19 18 22 25 25 28 28 28 29 30 29 28 27 26 27 27 26 26 26 25 23 23 22 21 23 24 26 26 23 23 21 20 17 14 13 13 14 15 14 13 13 14 13 13 11 10 10 9 7 7 8 9 9 9
8 9 4 5 4 7 8 7 8 3 2 3 2 3 1 3 3 3 2 2 4 3 1 5 9 8 6 10 14 15 18 16 18 21 21 24 25 28 28 27 27 27 26 26 28 29 26 25 28 28 28 25 26 24 22 19 22 27 28 26 23 22 22 21 20 18 14 13 13 13 13 12 12 12 12 11 10 9 9 9 7 7 7 8 9 9
4 1 1 2 6 3 4 8 7 9 9 7 0 3 6 4 4 3 2 2 1 2 2 6 8 9 9 7 11 13 12 16 21 23 22 23 24 24 26 27 26 25 26 25 25 28 27 26 26 26 28 29 27 25 22 21 20 24 26 25 23 22 20 20 21 20 18 15 12 13 12 12 12 12 12 11 9 9 9 9 7 7 7 8 9 9
3 3 2 4 5 2 5 1 4 5 1 3 4 5 5 4 3 2 3 1 2 2 4 4 7 8 8 9 10 14 17 18 19 20 20 19 20 23 26 27 26 27 25 27 27 27 27 26 26 27 29 29 28 25 24 25 22 21 22 22 22 22 21 20 19 19 17 15 15 11 10 11 9 9 9 9 8 8 8 8 7 7 8 8 9 10
5 4 6 11 10 7 11 5 7 6 4 5 6 4 5 3 2 2 3 4 4 5 3 5 3 5 5 7 10 14 16 15 17 19 19 18 19 20 22 24 29 28 26 24 24 26 25 24 27 28 28 26 27 26 25 23 23 24 23 22 21 21 21 21 19 18 17 17 14 12 11 9 11 11 9 8 7 7 7 7 7 7 8 9 9 10
3 4 3 3 4 7 6 9 12 5 5 4 2 3 4 6 6 5 4 3 3 4 5 2 2 4 6 10 12 13 14 14 13 16 19 19 19 18 19 23 27 26 24 26 26 26 25 26 27 27 26 25 25 25 24 25 24 24 25 22 22 21 21 19 20 18 18 16 13 12 11 10 8 8 8 8 7 7 8 8 8 8 8 8 8 9
5 8 5 1 7 9 9 10 2 3 8 3 5 7 4 3 6 4 4 2 2 2 2 3 2 2 5 8 9 10 13 14 14 15 18 17 17 19 22 24 25 26 25 22 20 21 23 24 24 26 26 23 24 24 24 25 25 24 22 22 20 20 19 20 18 17 15 13 12 12 11 9 8 8 8 8 7 7 7 9 12 10 9 8 11 15
10 9 6 8 7 9 10 6 4 5 5 8 3 7 5 7 6 6 5 3 2 2 2 5 8 5 3 5 6 8 11 13 15 15 17 16 17 17 19 22 24 26 25 25 24 24 26 26 26 25 26 25 25 24 23 24 24 24 25 24 23 21 19 17 14 13 13 13 11 12 11 9 8 7 7 8 8 8 8 6 8 14 16 13 12 14
Wind_Direction
275 44 74 60 315 294 276 202 214 234 210 261 265 253 281 290 294 245 251 304 342 339 317 320 312 304 301 335 326 332 350 350 341 51 64 42 36 34 27 27 23 26 19 355 4 6 4 360 356 352 351 350 348 354 353 350 346 344 342 330 320 303 290 278 273 264 249 237 233 236 236 239 202 191 201 193 189 191 189 182 186 185 189 187 184 179
63 36 319 220 237 258 271 207 131 44 39 282 300 323 312 308 295 310 306 52 342 27 299 318 314 300 304 334 321 340 356 338 15 64 60 44 34 32 34 33 32 21 7 12 12 7 3 359 354 353 355 356 357 351 351 351 346 340 340 341 324 315 299 280 270 264 253 244 235 226 225 223 227 216 190 202 197 190 185 184 185 183 185 187 189 183
5 325 237 223 215 104 65 98 61 175 298 320 287 313 326 307 291 292 180 11 19 359 300 319 308 293 308 341 313 344 49 28 65 80 59 38 33 29 32 34 27 21 16 13 11 6 2 356 353 351 349 352 352 346 347 343 343 343 342 339 334 321 312 294 279 270 263 255 253 241 233 220 223 221 232 202 193 191 188 185 187 183 181 186 189 184
2 293 246 225 148 111 38 68 66 37 50 307 323 346 305 324 13 321 319 335 319 176 258 277 277 287 312 320 302 60 122 64 81 65 42 31 29 27 27 27 25 19 14 10 2 359 356 354 351 348 349 349 347 348 348 349 347 342 341 338 335 330 318 302 290 274 266 262 255 252 246 234 213 211 206 239 206 187 180 183 185 181 181 186 189 189
240 257 358 85 63 82 343 335 14 30 324 319 235 267 324 339 326 257 303 321 316 312 187 317 301 288 320 339 319 2 63 67 49 45 33 23 29 27 28 33 30 22 13 5 358 355 353 352 351 345 337 343 348 346 343 343 344 340 335 334 333 328 324 308 300 288 276 266 262 254 247 246 242 224 210 202 212 198 183 172 180 183 183 190 191 189
291 272 202 51 47 51 47 351 7 30 325 322 255 137 318 310 323 323 318 336 327 323 121 43 315 293 314 358 309 346 74 61 37 46 29 18 19 16 24 19 13 14 10 2 356 349 344 341 338 338 334 344 345 344 341 338 336 338 335 332 332 331 328 324 313 303 288 272 261 265 249 234 235 227 202 202 198 190 175 181 180 194 192 191 190 187
236 341 72 56 62 32 54 26 271 171 259 44 293 138 355 307 309 309 316 349 311 304 298 76 284 295 308 323 302 339 77 85 46 44 29 20 14 21 20 15 11 1 353 351 349 348 346 342 340 340 333 329 336 337 335 336 335 335 335 333 329 330 328 326 322 314 298 280 268 257 257 251 234 230 225 211 193 189 193 184 187 194 191 189 188 189
13 308 28 40 61 62 27 13 308 105 83 308 176 22 332 342 326 311 305 269 261 272 308 135 196 258 296 350 224 31 84 48 38 27 22 14 8 13 1 8 1 354 348 344 343 341 340 337 337 339 334 333 336 335 335 336 334 334 333 332 330 328 328 327 327 322 310 288 276 267 260 251 245 236 222 211 206 193 179 191 189 182 189 190 189 186
112 326 36 25 54 44 347 219 292 172 185 235 318 33 318 310 286 282 274 276 258 342 307 20 238 335 256 255 351 338 36 18 31 15 5 4 2 1 5 344 349 345 342 339 337 338 336 334 335 338 341 335 333 332 332 332 333 331 331 330 330 330 329 332 332 329 320 303 281 272 270 266 249 236 226 205 216 208 190 183 184 185 184 187 190 188
293 135 104 114 114 344 233 324 233 93 40 293 309 275 236 252 253 244 253 269 303 359 299 294 294 274 280 299 338 356 64 23 3 3 354 355 357 356 2 346 342 340 341 343 344 340 337 334 330 329 326 329 330 327 325 326 330 332 331 329 329 330 329 330 332 332 326 316 299 281 269 268 269 249 230 219 201 207 196 194 187 189 182 182 186 189
259 303 183 90 147 194 153 80 150 75 107 268 37 357 340 310 251 248 240 232 1 276 168 173 144 87 299 316 142 58 65 5 347 348 353 355 3 7 356 352 347 345 342 337 334 329 323 318 313 316 318 319 322 325 328 328 327 327 328 326 326 327 325 327 332 334 332 326 315 296 282 273 269 267 243 221 213 201 195 197 190 187 189 180 183 185
336 14 82 327 36 135 107 94 3 18 275 34 21 7 326 320 345 290 347 331 347 277 159 244 68 23 292 337 67 114 99 43 20 359 349 353 1 354 345 341 339 338 335 328 323 322 317 311 308 307 308 318 324 327 330 327 323 321 321 323 322 324 327 327 332 335 334 333 324 312 296 281 275 271 263 234 215 207 203 197 189 185 185 187 187 185
342 42 340 334 256 95 87 74 313 5 25 20 12 8 31 301 353 325 71 340 228 269 287 17 7 329 226 269 99 89 27 10 3 347 357 2 352 345 347 346 340 336 330 326 323 319 317 311 306 305 309 318 326 325 321 318 315 315 316 318 318 319 323 324 328 333 332 333 332 325 312 295 282 277 269 254 226 202 201 195 192 185 186 184 187 186
285 262 342 297 14 351 118 79 342 11 18 31 37 344 66 349 5 302 300 221 274 253 242 323 315 241 278 244 98 86 79 331 359 2 2 4 358 347 338 330 326 324 323 322 318 315 313 311 304 297 301 308 311 313 314 314 312 309 309 311 311 309 314 317 325 330 332 332 332 330 324 310 293 281 275 269 253 218 199 197 189 185 184 186 187 182
352 341 273 50 283 334 57 125 174 187 144 163 203 128 168 158 232 289 292 305 303 302 307 317 346 214 32 262 180 169 261 1 6 5 6 1 339 331 324 316 313 318 320 319 316 314 313 310 307 304 302 301 303 304 306 308 309 310 304 304 306 308 312 315 320 327 330 331 331 330 327 321 311 291 281 277 265 245 221 199 195 189 186 184 189 184
213 227 307 326 227 104 94 231 141 107 99 203 163 97 67 236 151 197 218 304 311 307 308 335 262 278 288 180 82 355 8 5 2 352 350 338 330 321 320 317 318 317 317 318 315 314 314 310 305 300 297 296 297 298 300 303 307 309 307 301 294 295 301 305 314 323 326 328 326 326 327 326 319 306 290 282 277 254 225 208 198 191 187 186 185 187
37 285 226 276 4 74 340 246 329 145 87 261 70 231 214 166 156 276 342 279 277 296 256 307 288 285 35 320 11 357 2 346 348 344 336 331 327 323 319 321 315 315 315 317 315 313 313 310 304 298 294 295 293 293 295 297 299 300 303 304 299 297 296 299 306 313 324 326 326 325 325 326 324 321 307 294 287 273 235 208 199 194 190 183 181 182
146 251 232 187 39 275 231 131 78 13 133 65 68 223 276 164 138 116 192 294 259 226 277 307 290 303 343 306 31 351 341 339 337 334 331 327 328 323 321 319 319 314 314 313 310 309 308 305 301 296 290 290 290 288 289 291 293 293 296 299 297 294 295 297 301 310 320 327 325 322 322 322 322 321 319 308 293 285 262 222 204 198 189 185 182 181
107 333 279 328 152 226 5 67 41 30 40 139 188 228 83 334 333 303 98 340 311 284 290 275 299 285 237 269 10 333 336 331 331 332 329 327 327 323 317 315 311 310 312 314 313 312 310 305 302 297 290 287 286 282 279 282 285 287 292 297 292 285 282 283 290 296 303 314 317 315 312 314 318 321 320 319 312 296 273 233 206 197 193 188 184 178
345 156 301 175 141 205 111 74 272 295 329 35 29 28 45 92 233 99 274 195 206 277 35 290 332 284 95 265 344 323 325 324 333 330 323 321 321 317 314 312 310 309 308 308 308 308 306 304 300 297 292 287 284 282 279 277 280 283 292 296 290 282 273 275 279 281 291 301 308 308 307 308 312 318 320 322 323 311 288 244 213 197 195 191 184 184
270 110 238 227 258 32 333 116 226 141 187 349 34 344 3 333 204 161 227 140 183 189 193 296 306 281 90 352 323 315 316 326 332 322 316 317 315 311 308 307 305 302 303 303 304 303 301 300 300 298 293 285 278 273 273 271 274 283 291 290 284 278 277 270 270 274 274 284 298 305 306 308 314 318 321 322 322 318 301 270 231 206 193 188 190 183
60 115 198 230 329 213 226 237 170 167 160 159 153 195 164 201 26 14 296 120 104 101 228 269 264 278 34 358 301 312 314 321 323 316 312 313 310 307 306 302 301 300 300 299 299 298 298 296 294 291 290 288 281 277 275 272 275 283 287 284 281 275 267 271 270 268 271 275 284 299 304 306 307 312 317 320 322 319 313 292 236 207 194 190 193 183
147 131 137 267 212 240 250 282 231 164 139 145 137 204 169 191 114 128 292 287 340 261 220 234 273 271 82 320 299 299 314 315 314 311 308 308 305 302 300 298 295 297 297 297 295 296 294 293 291 288 285 285 285 280 275 274 275 279 281 279 276 270 264 257 263 263 265 273 284 295 300 301 305 309 315 318 320 318 317 308 270 219 187 190 188 194
80 102 20 282 307 324 17 338 29 57 98 144 325 90 94 180 216 207 195 255 281 292 274 269 247 273 332 310 277 309 307 309 311 309 308 306 303 302 302 299 303 305 305 303 297 292 289 291 286 289 289 287 285 284 280 277 277 276 276 274 272 269 263 256 254 258 260 265 276 288 295 298 299 304 309 315 317 314 313 312 293 234 209 185 179 184
60 283 122 312 338 75 82 27 6 310 85 72 224 225 165 197 239 226 217 215 162 244 243 241 269 290 292 319 303 301 306 309 312 310 309 309 307 305 304 304 307 310 308 306 305 301 300 294 295 290 289 288 287 287 285 282 279 277 274 271 270 268 263 257 248 251 251 257 271 282 290 293 296 298 304 310 312 312 309 308 304 257 207 192 185 182
139 228 98 275 278 311 312 314 292 275 275 252 212 210 207 192 224 46 347 318 270 257 261 239 270 274 292 304 301 307 309 305 302 308 311 306 307 310 314 315 315 314 310 308 306 306 303 299 295 292 291 290 289 289 288 286 282 279 273 270 265 265 263 257 258 245 249 253 266 281 289 292 293 294 299 304 308 307 306 304 305 279 228 188 182 188
167 342 166 175 170 214 244 255 337 71 342 310 297 290 278 200 214 174 116 216 246 280 283 273 262 285 299 311 310 312 314 313 316 317 318 316 315 316 318 318 316 312 307 303 303 302 300 298 299 306 313 319 319 318 317 313 304 291 281 274 267 261 259 262 262 254 246 255 264 280 289 292 291 291 292 298 300 302 301 302 301 292 243 199 177 176
76 323 242 217 235 231 238 262 273 92 248 276 290 286 293 296 261 177 185 236 248 298 280 279 289 296 301 308 308 309 312 312 310 313 318 316 319 326 319 312 310 309 305 306 301 302 316 327 325 321 319 320 321 319 315 312 312 312 311 298 284 272 270 271 264 257 252 263 277 285 295 295 293 286 286 291 296 297 297 296 299 295 264 211 177 177
135 182 276 220 252 238 251 264 273 288 245 247 259 271 287 293 292 280 259 256 264 232 267 292 294 294 297 301 306 304 308 311 312 318 322 320 321 317 314 313 312 308 308 309 317 333 328 321 326 324 321 318 317 315 313 310 309 308 307 306 304 303 297 292 276 265 267 280 288 293 297 298 292 280 282 288 294 295 294 294 295 295 269 236 191 179
76 265 223 252 274 272 235 250 260 240 235 269 265 264 272 277 276 274 273 274 268 267 272 281 288 288 297 301 300 304 308 312 316 321 330 326 320 315 313 316 310 311 313 322 325 323 322 320 318 319 319 318 321 320 319 317 316 313 310 307 305 299 295 296 288 288 290 289 290 293 296 296 287 277 279 288 292 292 290 289 292 293 270 229 216 181
104 273 95 272 307 247 220 242 234 208 223 256 264 270 272 270 276 270 260 265 262 265 276 287 295 296 291 294 310 312 313 317 319 331 339 321 318 316 316 314 315 318 319 321 321 320 318 317 317 316 316 317 319 317 314 311 310 311 310 308 304 301 302 302 294 288 284 282 282 287 292 291 278 268 279 286 289 287 286 285 288 288 273 227 206 199
117 250 64 80 359 295 178 169 223 176 215 244 266 281 283 281 285 273 244 235 281 279 289 301 305 305 312 319 314 315 317 323 324 332 330 324 320 317 313 320 320 319 321 323 321 319 319 317 318 317 315 314 313 313 312 312 310 310 309 307 304 301 296 288 285 284 286 287 287 287 286 279 267 273 282 287 282 280 281 281 284 284 268 239 198 193
162 152 36 42 353 260 141 102 198 205 242 276 260 241 244 254 251 266 270 255 234 266 296 302 290 302 309 318 321 323 326 321 324 333 329 314 311 307 320 321 318 321 322 321 319 317 316 315 315 314 314 312 311 309 307 305 303 304 304 304 303 302 296 293 289 283 280 279 278 277 270 256 273 281 284 280 274 274 277 278 280 279 265 235 210 181
136 152 162 163 181 271 299 344 220 51 318 240 210 175 176 224 256 274 279 260 262 270 270 276 293 304 312 323 327 323 328 323 318 321 319 305 309 327 323 315 315 314 316 317 315 317 316 314 313 312 309 307 306 305 303 301 299 297 298 297 294 296 296 293 289 286 282 281 273 268 270 279 279 281 278 269 267 270 272 273 275 274 257 232 217 186
174 151 175 125 142 275 334 337 1 265 233 247 159 209 230 252 264 262 272 277 263 269 275 290 294 306 317 324 320 321 321 317 316 316 318 307 330 328 322 320 321 320 317 317 316 316 318 319 317 314 311 308 306 308 306 300 297 298 298 298 295 291 292 291 287 282 282 279 278 278 277 277 277 275 267 261 264 268 268 270 277 273 252 227 209 196
188 148 156 217 140 335 304 3 289 238 253 268 271 267 272 254 253 288 284 257 202 246 282 293 310 317 323 323 323 327 325 317 313 313 322 332 344 326 321 317 317 320 322 320 315 318 319 318 315 312 314 313 307 305 309 303 297 295 296 299 296 294 290 289 286 286 284 281 276 272 269 270 271 261 254 259 263 264 266 270 273 268 248 221 210 203
152 89 135 347 218 179 228 184 234 323 321 302 73 315 123 283 336 323 307 308 317 303 314 321 323 325 326 327 326 329 326 314 305 312 333 340 339 328 314 314 323 318 317 319 317 312 314 313 313 313 307 307 309 305 307 309 304 295 297 297 294 292 287 282 283 288 290 287 284 274 265 259 253 249 254 258 258 259 262 270 272 264 238 218 209 196
184 164 217 110 281 126 192 296 332 14 328 276 216 225 229 122 141 200 250 294 307 308 343 344 325 324 329 329 330 328 326 325 327 317 324 331 331 329 325 326 314 315 322 317 315 316 314 315 312 310 312 308 311 312 307 306 307 299 292 292 290 291 290 286 285 287 285 284 284 283 282 264 248 252 256 253 250 253 261 263 264 259 230 214 200 197
210 210 225 172 222 40 319 254 228 196 244 263 283 264 247 76 15 105 129 285 184 351 354 350 327 331 337 332 327 326 333 334 313 311 319 324 324 324 325 323 327 326 322 324 321 316 319 317 315 312 312 312 313 316 315 308 302 300 291 289 287 285 284 282 279 276 277 278 278 273 261 255 255 256 253 249 247 251 259 256 257 253 225 213 203 197
165 210 98 255 217 192 153 196 247 227 258 267 296 296 316 300 45 69 327 272 349 347 351 355 336 332 336 330 325 314 329 322 318 304 312 318 321 322 320 321 321 323 324 321 320 320 314 316 318 319 319 318 317 318 317 313 304 296 288 283 285 284 281 278 279 279 277 277 275 275 281 282 274 261 250 246 251 254 252 253 252 244 221 209 201 196
181 252 200 216 219 234 224 255 326 282 265 261 261 282 315 293 296 330 278 300 354 340 337 349 336 327 332 319 322 318 286 272 284 291 302 307 315 317 320 320 321 319 318 323 324 324 323 321 320 317 317 316 316 318 319 318 314 307 293 286 283 280 277 279 278 274 277 275 273 273 272 268 261 255 252 248 253 256 254 245 241 237 219 205 201 194
262 129 270 137 191 216 230 223 230 263 256 230 271 246 180 55 344 296 282 13 23 332 320 338 331 328 323 301 300 278 285 296 293 295 303 311 311 315 321 320 320 322 329 325 322 324 321 323 321 322 322 320 320 321 319 318 315 314 311 297 287 283 277 271 269 272 273 271 271 271 269 263 254 248 251 255 251 253 250 242 228 224 214 204 197 194
197 151 228 178 178 90 143 117 326 284 289 139 194 336 224 43 227 265 314 310 85 316 327 321 329 305 319 305 300 297 300 305 304 304 307 311 312 316 318 318 322 324 324 328 331 333 330 325 326 325 324 322 323 322 320 317 314 313 315 314 311 305 291 284 269 267 269 269 267 265 266 267 268 264 263 258 251 245 247 238 219 219 207 199 198 195
184 100 234 205 169 156 179 169 205 216 187 198 37 300 235 239 160 153 147 291 330 3 344 304 308 312 310 301 304 306 305 308 306 310 319 319 318 321 320 321 326 326 324 327 329 330 332 327 324 325 323 322 321 321 320 317 316 316 315 312 314 316 315 312 301 281 268 264 262 264 263 263 260 258 253 250 245 240 241 234 215 210 205 197 197 197
221 192 182 177 221 153 195 217 239 222 211 303 340 235 125 121 99 165 157 210 278 331 22 293 289 302 298 307 305 305 307 308 307 311 315 314 316 320 320 321 319 321 322 327 329 330 330 328 325 323 322 323 320 320 321 321 319 316 314 312 315 316 315 314 316 313 288 264 259 255 258 254 253 251 247 242 233 234 235 231 209 207 203 192 196 200
269 222 106 60 236 256 263 227 245 273 282 290 262 151 151 156 159 155 151 211 202 180 269 268 291 299 307 313 310 305 303 310 313 313 314 316 316 314 319 317 320 322 324 331 336 337 330 327 325 325 323 321 322 325 325 323 319 317 311 311 312 313 313 312 314 313 309 298 265 256 253 251 252 248 245 240 229 226 226 226 209 205 197 195 197 200
246 139 104 221 257 306 280 190 185 231 220 255 285 87 88 132 168 157 133 156 238 236 246 256 280 295 302 310 298 300 306 314 312 309 311 312 312 315 317 323 323 320 324 327 331 333 334 331 330 326 322 322 326 330 327 322 320 312 307 309 308 308 305 307 307 306 304 301 301 279 257 252 253 254 249 237 233 225 225 220 213 203 204 198 197 198
295 155 141 235 243 213 245 260 274 257 234 240 250 193 166 160 166 127 134 180 215 230 227 256 274 285 310 303 306 308 307 312 312 311 314 314 315 317 319 322 323 324 324 325 323 327 328 331 327 325 326 328 329 329 323 322 318 314 314 313 314 312 310 311 308 303 300 296 293 290 278 261 249 249 252 242 223 225 224 222 211 211 208 202 199 196
160 130 216 175 203 250 286 282 269 299 277 236 149 124 156 164 167 165 163 177 243 254 257 265 294 311 308 302 309 309 307 309 310 312 311 313 313 317 321 322 320 322 321 325 329 333 331 322 324 326 328 327 329 322 323 321 322 320 320 318 315 310 308 305 305 301 292 289 285 278 273 261 257 245 244 242 232 222 220 213 212 216 216 209 199 199
136 223 199 156 267 263 247 250 237 308 293 287 191 190 173 169 143 173 176 200 211 253 289 301 295 305 304 301 307 307 306 310 316 316 313 313 314 314 320 320 320 324 321 327 326 324 323 326 326 325 327 328 325 326 327 331 325 320 321 316 316 314 309 305 301 295 288 283 280 279 275 263 248 243 238 238 235 232 230 225 217 211 212 212 203 203
205 213 174 211 215 247 250 238 176 202 247 257 227 157 180 158 157 169 176 194 223 321 336 330 325 319 292 293 298 299 302 311 314 317 313 314 316 319 318 319 327 324 323 330 326 327 334 330 327 325 333 333 332 329 333 331 321 329 328 330 321 310 303 297 293 289 284 278 272 267 270 265 256 243 239 232 232 231 230 230 225 221 216 210 197 199